^^
Saratoga-Weather Station Historical Data
Daily Summary for May 12, 2021 Units:  English    Metric   Both
Daily Weekly Monthly Yearly Custom
  High: Low: Average:
Temperature: 75.6 °F 62.8 °F 68.4 °F
Dew Point: 61.9 °F 58.1 °F 60.1 °F
Humidity: 89% 57% 76%
Wind Speed: 12.1mph 0mph 3.9mph
Wind Gust: 15mph - -
Wind- - West
Pressure: 30.1 in 30.1 in -
Precipitation: 0 in    
Historical Graphs
 
 
Tabular Data for May 12, 2021
Time Temperature Dew Point Pressure Wind Wind Speed Wind Gust Humidity Rainfall Rate (Hourly) solar
00:00 70 °F 61.7 °F 30.1 in West 2.9 mph 9 mph 75% 0 in 0 W/m2
00:05 69.8 °F 61.5 °F 30.1 in WSW 4 mph 8 mph 75% 0 in 0 W/m2
00:10 69.6 °F 61.7 °F 30.1 in West 4 mph 9 mph 76% 0 in 0 W/m2
00:15 69.4 °F 61.5 °F 30.1 in WSW 4 mph 7 mph 76% 0 in 0 W/m2
00:20 69.3 °F 61.3 °F 30.1 in WNW 4 mph 7 mph 76% 0 in 0 W/m2
00:25 69.1 °F 61.2 °F 30.1 in WSW 4 mph 6 mph 76% 0 in 0 W/m2
00:30 68.9 °F 61 °F 30.1 in West 4 mph 6 mph 76% 0 in 0 W/m2
00:35 68.9 °F 61 °F 30.1 in WSW 2.9 mph 4 mph 76% 0 in 0 W/m2
00:40 68.7 °F 60.8 °F 30.1 in West 2.9 mph 4 mph 76% 0 in 0 W/m2
00:45 68.7 °F 60.8 °F 30.1 in West 6 mph 6 mph 76% 0 in 0 W/m2
00:50 68.5 °F 60.6 °F 30.1 in West 2.9 mph 6 mph 76% 0 in 0 W/m2
00:55 68.5 °F 61 °F 30.1 in West 2.9 mph 4 mph 77% 0 in 0 W/m2
01:00 68.4 °F 60.8 °F 30.1 in West 4 mph 7 mph 77% 0 in 0 W/m2
01:05 68.2 °F 60.6 °F 30.1 in West 2.9 mph 3 mph 77% 0 in 0 W/m2
01:10 68 °F 60.4 °F 30.1 in West 2.9 mph 7 mph 77% 0 in 0 W/m2
01:15 67.8 °F 60.3 °F 30.1 in West 2 mph 7 mph 77% 0 in 0 W/m2
01:20 67.8 °F 60.3 °F 30.1 in West 4 mph 4 mph 77% 0 in 0 W/m2
01:25 67.6 °F 60.3 °F 30.1 in West 2.9 mph 4 mph 77% 0 in 0 W/m2
01:30 67.6 °F 60.3 °F 30.1 in WSW 2.9 mph 5 mph 77% 0 in 0 W/m2
01:35 67.6 °F 60.6 °F 30.1 in WNW 2.9 mph 6 mph 78% 0 in 0 W/m2
01:40 67.5 °F 60.4 °F 30.1 in West 2 mph 4 mph 78% 0 in 0 W/m2
01:45 67.5 °F 60.4 °F 30.1 in WNW 2 mph 3 mph 78% 0 in 0 W/m2
01:50 67.5 °F 60.4 °F 30.1 in West 2 mph 4 mph 78% 0 in 0 W/m2
01:55 67.5 °F 60.1 °F 30.1 in WSW 2.9 mph 5 mph 77% 0 in 0 W/m2
02:00 67.5 °F 60.1 °F 30.1 in West 4 mph 8 mph 77% 0 in 0 W/m2
02:05 67.5 °F 60.4 °F 30.1 in West 4 mph 6 mph 78% 0 in 0 W/m2
02:10 67.3 °F 60.3 °F 30.1 in WNW 2 mph 6 mph 78% 0 in 0 W/m2
02:15 67.1 °F 60.1 °F 30.1 in West 4 mph 6 mph 78% 0 in 0 W/m2
02:20 67.1 °F 60.1 °F 30.1 in West 2 mph 6 mph 78% 0 in 0 W/m2
02:25 66.9 °F 60.3 °F 30.1 in West 2.9 mph 4 mph 79% 0 in 0 W/m2
02:30 66.7 °F 60.1 °F 30.1 in West 4 mph 5 mph 79% 0 in 0 W/m2
02:35 66.7 °F 60.1 °F 30.1 in WSW 4.9 mph 6 mph 79% 0 in 0 W/m2
02:40 66.6 °F 59.9 °F 30.1 in West 2.9 mph 4 mph 79% 0 in 0 W/m2
02:45 66.6 °F 59.9 °F 30.1 in West 2.9 mph 4 mph 79% 0 in 0 W/m2
02:50 66.6 °F 59.9 °F 30.1 in West 2 mph 4 mph 79% 0 in 0 W/m2
02:55 66.4 °F 60.1 °F 30.1 in West 2.9 mph 7 mph 80% 0 in 0 W/m2
03:00 66.4 °F 60.1 °F 30.1 in West 2 mph 4 mph 80% 0 in 0 W/m2
03:05 66.2 °F 59.9 °F 30.1 in WSW 0.9 mph 7 mph 80% 0 in 0 W/m2
03:10 66 °F 59.7 °F 30.1 in WSW 2 mph 3 mph 80% 0 in 0 W/m2
03:15 65.8 °F 59.9 °F 30.1 in West 4 mph 4 mph 81% 0 in 0 W/m2
03:20 65.8 °F 59.9 °F 30.1 in West 2 mph 4 mph 81% 0 in 0 W/m2
03:25 65.8 °F 59.9 °F 30.1 in West 2 mph 4 mph 81% 0 in 0 W/m2
03:30 65.7 °F 60.1 °F 30.1 in West 2.9 mph 3 mph 82% 0 in 0 W/m2
03:35 65.7 °F 60.1 °F 30.1 in Calm   4 mph 82% 0 in 0 W/m2
03:40 65.5 °F 59.9 °F 30.1 in West 0.9 mph 1 mph 82% 0 in 0 W/m2
03:45 65.5 °F 59.9 °F 30.1 in West 0.9 mph 1 mph 82% 0 in 0 W/m2
03:50 64.9 °F 59.7 °F 30.1 in West 2 mph 2 mph 83% 0 in 0 W/m2
03:55 64.8 °F 59.5 °F 30.1 in West 2 mph 2 mph 83% 0 in 0 W/m2
04:00 64.6 °F 59.7 °F 30.1 in West 0.9 mph 3 mph 84% 0 in 0 W/m2
04:05 64.6 °F 59.7 °F 30.1 in WSW 0.9 mph 2 mph 84% 0 in 0 W/m2
04:10 64.6 °F 59.7 °F 30.1 in WSW 0.9 mph 2 mph 84% 0 in 0 W/m2
04:15 64.4 °F 59.5 °F 30.1 in West 2 mph 2 mph 84% 0 in 0 W/m2
04:20 64 °F 59.4 °F 30.1 in WNW 0.9 mph 3 mph 85% 0 in 0 W/m2
04:25 63.9 °F 59.2 °F 30.1 in Calm   4 mph 85% 0 in 0 W/m2
04:30 63.9 °F 59.5 °F 30.1 in Calm   1 mph 86% 0 in 0 W/m2
04:35 63.7 °F 59.4 °F 30.1 in Calm   4 mph 86% 0 in 0 W/m2
04:40 63.3 °F 59 °F 30.1 in WNW 0.9 mph 2 mph 86% 0 in 0 W/m2
04:45 63.1 °F 58.8 °F 30.1 in Calm   1 mph 86% 0 in 0 W/m2
04:50 63.1 °F 59.2 °F 30.1 in WNW 2 mph 2 mph 87% 0 in 0 W/m2
04:55 62.8 °F 58.8 °F 30.1 in WNW 0.9 mph 2 mph 87% 0 in 0 W/m2
05:01 62.8 °F 59.2 °F 30.1 in WNW 2 mph 3 mph 88% 0 in 0 W/m2
05:06 62.8 °F 59.2 °F 30.1 in West 2 mph 6 mph 88% 0 in 0 W/m2
05:11 63 °F 59.4 °F 30.1 in West 2.9 mph 4 mph 88% 0 in 0 W/m2
05:16 63 °F 59.4 °F 30.1 in WNW 2.9 mph 4 mph 88% 0 in 0 W/m2
05:21 63 °F 59.4 °F 30.1 in WNW 0.9 mph 4 mph 88% 0 in 0 W/m2
05:26 63.1 °F 59.5 °F 30.1 in West 2 mph 6 mph 88% 0 in 0 W/m2
05:31 63 °F 59.4 °F 30.1 in WNW 2 mph 4 mph 88% 0 in 0 W/m2
05:36 63 °F 59.4 °F 30.1 in WNW 2.9 mph 4 mph 88% 0 in 0 W/m2
05:41 63 °F 59.4 °F 30.1 in West 2.9 mph 4 mph 88% 0 in 5 W/m2
05:46 63 °F 59.4 °F 30.1 in West 2.9 mph 7 mph 88% 0 in 7 W/m2
05:51 63 °F 59.4 °F 30.1 in West 2.9 mph 7 mph 88% 0 in 11 W/m2
05:56 62.8 °F 59.2 °F 30.1 in WSW 4 mph 4 mph 88% 0 in 14 W/m2
06:01 62.8 °F 59.2 °F 30.1 in Calm   2 mph 88% 0 in 19 W/m2
06:06 62.8 °F 59.2 °F 30.1 in West 2.9 mph 4 mph 88% 0 in 25 W/m2
06:11 62.8 °F 59.5 °F 30.1 in West 2 mph 4 mph 89% 0 in 28 W/m2
06:16 62.8 °F 59.5 °F 30.1 in WNW 2 mph 2 mph 89% 0 in 30 W/m2
06:21 63 °F 59.7 °F 30.1 in WNW 2 mph 3 mph 89% 0 in 28 W/m2
06:26 63.1 °F 59.9 °F 30.1 in West 2 mph 3 mph 89% 0 in 28 W/m2
06:31 63.1 °F 59.5 °F 30.1 in West 2.9 mph 3 mph 88% 0 in 30 W/m2
06:36 63.1 °F 59.5 °F 30.1 in WSW 2.9 mph 4 mph 88% 0 in 32 W/m2
06:41 63.3 °F 59.7 °F 30.1 in West 2.9 mph 3 mph 88% 0 in 35 W/m2
06:46 63.3 °F 59.7 °F 30.1 in West 2 mph 2 mph 88% 0 in 44 W/m2
06:51 63.5 °F 60.3 °F 30.1 in WSW 0.9 mph 4 mph 89% 0 in 49 W/m2
06:56 63.7 °F 60.4 °F 30.1 in WSW 0.9 mph 2 mph 89% 0 in 32 W/m2
07:01 63.7 °F 60.1 °F 30.1 in Calm   4 mph 88% 0 in 30 W/m2
07:06 63.9 °F 60.3 °F 30.1 in Calm     88% 0 in 35 W/m2
07:11 64 °F 60.4 °F 30.1 in Calm   1 mph 88% 0 in 37 W/m2
07:16 64.2 °F 60.3 °F 30.1 in NW 0.9 mph 2 mph 87% 0 in 39 W/m2
07:21 64.4 °F 60.4 °F 30.1 in WNW 2 mph 3 mph 87% 0 in 40 W/m2
07:26 64.8 °F 60.8 °F 30.1 in WNW 0.9 mph 3 mph 87% 0 in 42 W/m2
07:31 65.1 °F 60.8 °F 30.1 in NW 2.9 mph 3 mph 86% 0 in 47 W/m2
07:36 65.8 °F 61.2 °F 30.1 in WSW 4.9 mph 8 mph 85% 0 in 63 W/m2
07:41 66.2 °F 61.2 °F 30.1 in West 2.9 mph 9 mph 84% 0 in 130 W/m2
07:46 66.4 °F 61.3 °F 30.1 in WNW 6 mph 10 mph 84% 0 in 260 W/m2
07:51 66.6 °F 61.5 °F 30.1 in WSW 4 mph 9 mph 84% 0 in 285 W/m2
07:56 66.7 °F 61.3 °F 30.1 in NW 6 mph 6 mph 83% 0 in 288 W/m2
08:01 66.9 °F 61.5 °F 30.1 in West 4 mph 10 mph 83% 0 in 322 W/m2
08:06 67.1 °F 61.7 °F 30.1 in WSW 12.1 mph 12 mph 83% 0 in 306 W/m2
08:11 67.1 °F 61.7 °F 30.1 in SW 6 mph 9 mph 83% 0 in 225 W/m2
08:16 67.3 °F 61.9 °F 30.1 in NW 2.9 mph 8 mph 83% 0 in 149 W/m2
08:21 67.6 °F 61.5 °F 30.1 in WNW 6.9 mph 9 mph 81% 0 in 148 W/m2
08:26 67.6 °F 61.5 °F 30.1 in WNW 8.1 mph 9 mph 81% 0 in 151 W/m2
08:31 67.8 °F 61.7 °F 30.1 in West 6.9 mph 9 mph 81% 0 in 144 W/m2
08:36 68.2 °F 61.3 °F 30.1 in West 4 mph 10 mph 79% 0 in 125 W/m2
08:41 68.2 °F 61 °F 30.1 in West 6 mph 13 mph 78% 0 in 109 W/m2
08:46 68.2 °F 60.6 °F 30.1 in NW 4.9 mph 10 mph 77% 0 in 97 W/m2
08:51 68.2 °F 61 °F 30.1 in West 6 mph 13 mph 78% 0 in 104 W/m2
08:56 68.4 °F 60.4 °F 30.1 in West 6 mph 6 mph 76% 0 in 114 W/m2
09:01 68.5 °F 60.3 °F 30.1 in WNW 6.9 mph 13 mph 75% 0 in 132 W/m2
09:06 68.7 °F 60.4 °F 30.1 in West 2.9 mph 4 mph 75% 0 in 151 W/m2
09:11 68.9 °F 60.6 °F 30.1 in SSW 6 mph 9 mph 75% 0 in 230 W/m2
09:16 68.9 °F 60.6 °F 30.1 in WNW 2 mph 7 mph 75% 0 in 341 W/m2
09:21 68.7 °F 60.1 °F 30.1 in West 6.9 mph 7 mph 74% 0 in 371 W/m2
09:26 68.5 °F 60.3 °F 30.1 in WNW 4 mph 8 mph 75% 0 in 394 W/m2
09:31 68.7 °F 60.4 °F 30.1 in WNW 2 mph 7 mph 75% 0 in 446 W/m2
09:36 68.7 °F 60.1 °F 30.1 in NW 4 mph 12 mph 74% 0 in 392 W/m2
09:41 68.7 °F 60.4 °F 30.1 in West 8.9 mph 10 mph 75% 0 in 520 W/m2
09:46 68.9 °F 59.9 °F 30.1 in North 2.9 mph 12 mph 73% 0 in 462 W/m2
09:51 69.3 °F 60.3 °F 30.1 in West 4 mph 9 mph 73% 0 in 540 W/m2
09:56 69.6 °F 60.3 °F 30.1 in WNW 6.9 mph 10 mph 72% 0 in 526 W/m2
10:01 70 °F 60.1 °F 30.1 in WNW 4.9 mph 9 mph 71% 0 in 450 W/m2
10:06 70 °F 60.6 °F 30.1 in West 6.9 mph 9 mph 72% 0 in 492 W/m2
10:11 70.2 °F 60.3 °F 30.1 in West 6 mph 10 mph 71% 0 in 241 W/m2
10:16 70.3 °F 60.4 °F 30.1 in WNW 4 mph 9 mph 71% 0 in 601 W/m2
10:21 70.9 °F 60.3 °F 30.1 in West 2.9 mph 5 mph 69% 0 in 258 W/m2
10:26 71.1 °F 60.4 °F 30.1 in WSW 4 mph 8 mph 69% 0 in 696 W/m2
10:31 71.1 °F 59.2 °F 30.1 in WNW 4 mph 12 mph 66% 0 in 605 W/m2
10:36 70.7 °F 58.8 °F 30.1 in West 4 mph 10 mph 66% 0 in 506 W/m2
10:41 70.7 °F 59.5 °F 30.1 in WNW 2.9 mph 12 mph 68% 0 in 629 W/m2
10:46 71.2 °F 59.7 °F 30.1 in WSW 6.9 mph 10 mph 67% 0 in 735 W/m2
10:51 71.4 °F 59.5 °F 30.1 in WNW 2.9 mph 9 mph 66% 0 in 679 W/m2
10:56 71.8 °F 60.3 °F 30.1 in WNW 2.9 mph 10 mph 67% 0 in 661 W/m2
11:01 72 °F 59.2 °F 30.1 in WSW 6.9 mph 8 mph 64% 0 in 682 W/m2
11:06 72.1 °F 58.5 °F 30.1 in West 6 mph 13 mph 62% 0 in 575 W/m2
11:11 72 °F 59.2 °F 30.1 in NW 4 mph 11 mph 64% 0 in 656 W/m2
11:16 72 °F 58.6 °F 30.1 in WSW 6.9 mph 13 mph 63% 0 in 482 W/m2
11:21 72.1 °F 58.5 °F 30.1 in NNW 6 mph 11 mph 62% 0 in 666 W/m2
11:26 72.1 °F 58.5 °F 30.1 in WNW 4.9 mph 13 mph 62% 0 in 729 W/m2
11:31 72.3 °F 58.1 °F 30.1 in West 4 mph 8 mph 61% 0 in 480 W/m2
11:36 72.7 °F 58.8 °F 30.1 in West 6 mph 11 mph 62% 0 in 737 W/m2
11:41 72.3 °F 58.1 °F 30.1 in WSW 6.9 mph 12 mph 61% 0 in 503 W/m2
11:46 72.3 °F 59 °F 30.1 in West 8.9 mph 9 mph 63% 0 in 696 W/m2
11:51 72.9 °F 59 °F 30.1 in WSW 10.1 mph 10 mph 62% 0 in 652 W/m2
11:56 72.9 °F 58.6 °F 30.1 in WNW 6.9 mph 10 mph 61% 0 in 726 W/m2
12:01 73 °F 59.7 °F 30.1 in WNW 4.9 mph 11 mph 63% 0 in 773 W/m2
12:06 73.4 °F 59.2 °F 30.1 in WSW 4.9 mph 8 mph 61% 0 in 738 W/m2
12:11 73.6 °F 59.7 °F 30.1 in NW 4 mph 9 mph 62% 0 in 802 W/m2
12:16 73.8 °F 60.4 °F 30.1 in NW 4.9 mph 14 mph 63% 0 in 858 W/m2
12:21 73.8 °F 60.4 °F 30.1 in WNW 10.1 mph 10 mph 63% 0 in 896 W/m2
12:26 73.9 °F 60.6 °F 30.1 in West 4 mph 14 mph 63% 0 in 853 W/m2
12:31 74.1 °F 60.3 °F 30.1 in West 10.1 mph 14 mph 62% 0 in 902 W/m2
12:36 74.5 °F 60.6 °F 30.1 in NW 4 mph 8 mph 62% 0 in 875 W/m2
12:41 75.2 °F 59.4 °F 30.1 in WNW 10.1 mph 14 mph 58% 0 in 879 W/m2
12:46 74.8 °F 59.5 °F 30.1 in WSW 8.1 mph 15 mph 59% 0 in 861 W/m2
12:51 74.5 °F 59.7 °F 30.1 in WNW 8.1 mph 15 mph 60% 0 in 918 W/m2
12:56 74.1 °F 59.7 °F 30.1 in West 6.9 mph 13 mph 61% 0 in 912 W/m2
13:01 74.7 °F 60.8 °F 30.1 in WSW 4.9 mph 8 mph 62% 0 in 1007 W/m2
13:07 74.5 °F 60.6 °F 30.1 in West 8.1 mph 8 mph 62% 0 in 339 W/m2
13:12 74.5 °F 60.1 °F 30.1 in NNE 2 mph 12 mph 61% 0 in 858 W/m2
13:17 74.5 °F 61 °F 30.1 in West 8.9 mph 12 mph 63% 0 in 858 W/m2
13:22 74.5 °F 60.6 °F 30.1 in NW 8.1 mph 11 mph 62% 0 in 308 W/m2
13:27 73.9 °F 60.1 °F 30.1 in West 8.9 mph 14 mph 62% 0 in 926 W/m2
13:32 74.1 °F 60.3 °F 30.1 in WNW 4.9 mph 11 mph 62% 0 in 290 W/m2
13:37 74.1 °F 61.2 °F 30.1 in NNW 8.1 mph 14 mph 64% 0 in 309 W/m2
13:42 74.5 °F 60.6 °F 30.1 in WNW 4 mph 8 mph 62% 0 in 912 W/m2
13:47 74.8 °F 61 °F 30.1 in North 2 mph 11 mph 62% 0 in 946 W/m2
13:52 75.6 °F 59.2 °F 30.1 in NW 6.9 mph 9 mph 57% 0 in 842 W/m2
13:57 75 °F 59.2 °F 30.1 in WNW 4.9 mph 9 mph 58% 0 in 476 W/m2
14:02 74.8 °F 60.4 °F 30.1 in WNW 2 mph 8 mph 61% 0 in 304 W/m2
14:07 74.7 °F 59.9 °F 30.1 in West 10.1 mph 10 mph 60% 0 in 236 W/m2
14:12 74.1 °F 59.4 °F 30.1 in WSW 8.1 mph 11 mph 60% 0 in 185 W/m2
14:17 73.8 °F 60.4 °F 30.1 in WNW 2.9 mph 6 mph 63% 0 in 274 W/m2
14:22 73.9 °F 60.6 °F 30.1 in NW 4.9 mph 11 mph 63% 0 in 415 W/m2
14:27 74.1 °F 60.8 °F 30.1 in West 2.9 mph 9 mph 63% 0 in 573 W/m2
14:32 74.3 °F 60.8 °F 30.1 in West 6.9 mph 9 mph 63% 0 in 390 W/m2
14:37 74.1 °F 60.8 °F 30.1 in NW 2.9 mph 9 mph 63% 0 in 424 W/m2
Juneau County Weather
Compliments of Weather Underground - 4 mb